Tracking 28794 objects as of 19-Apr-2024
HD Live streaming from Space Station
objects crossing your sky now

IRIDIUM 33 DEB

Track IRIDIUM 33 DEB now!
10-day predictions


NORAD ID: 34693
Int'l Code: 1997-051KQ
Perigee: 656.1 km
Apogee: 681.2 km
Inclination: 86.3 °
Period: 98.0 minutes
Semi major axis: 7039 km
RCS: 0.01 m2 (small)
Launch date: September 14, 1997
Source: United States (US)
Launch site: TYURATAM MISSILE AND SPACE COMPLEX (TTMTR)

Note: This is SATELLITE DEBRIS
Your satellite tracking list
Your tracking list is empty




NASA's NSSDC Master Catalog

Two Line Element Set (TLE):
1 34693U 97051KQ  24108.35492855  .00039581  00000-0  65733-2 0  9995
2 34693  86.3346 226.5855 0017809  25.5758  29.1789 14.69855694799016
Source of the keplerian elements: AFSPC